Вернуться в каталог

INSAT 3D

АктивенПогодаGEO
NORAD 39216·PAYLOAD·🇮🇳 India

Запущен Jul 25, 2013 с Guiana Space Centre

Loading…

TLE

СвежийSource: Space-Track

Эпоха: Sep 14, 2026, 14:25 UTC

1 39216U 13038B   26257.60075446 -.00000346  00000-0  00000-0 0  9994
2 39216   2.1506  81.3151 0001286 109.1612 148.9018  1.00272094 47976

Отслеживайте INSAT 3D в реальном времени с AllMySat

Download on the App Store